Weather observations for the past three days for
Pueblo Memorial Airport
Metric (Imperial)
Date Time (mdt) Wind (kph) Vis. (km) Weather Sky Cond. Temperature (ºC) Relative Humidity Wind Chill (°C) Heat Index (°C) Pressure Precipitation (cm)
Air Dwpt 6 hour altimeter (cm) sea level (mb) 1 hr 3 hr 6 hr
Max. Min.
06 08:53 E 7 16.09 Fair CLR 23.3 14.4 57% 76.48 1012.5
06 07:53 NE 17 16.09 Fair CLR 21.7 13.3 59% 76.43 1011.8
06 06:53 N 19 16.09 Fair CLR 18.9 12.8 68% 76.38 1011.0
06 05:53 N 17 16.09 Fair CLR 18.3 12.8 22.8 17.8 70% 76.33 1010.1
06 04:53 N 13 16.09 Fair CLR 18.9 12.8 68% 76.33 1009.9
06 03:53 N 17 16.09 Fair CLR 20 12.8 63% 76.3 1009.5
06 02:53 NE 13 16.09 Fair CLR 20.6 12.8 61% 76.3 1009.3
06 01:53 E 17 16.09 Fair CLR 21.1 12.8 59% 76.3 1009.3
06 00:53 N 9 16.09 Fair CLR 22.2 12.2 53% 76.28 1009.1
05 23:53 NE 6 16.09 Fair CLR 22.2 11.7 34.4 22.2 52% 76.28 1009.1
05 22:53 E 11 16.09 Fair CLR 25 11.1 42% 26 76.3 1009.5
05 21:53 E 13 16.09 Fair CLR 25 10.6 40% 26 76.28 1009.4
05 20:53 SE 17 16.09 Fair CLR 27.8 11.7 37% 27 76.23 1008.8
05 19:53 E 13 16.09 Fair CLR 30 9.4 28% 29 76.15 1007.8
05 18:53 SE 9 16.09 Fair CLR 33.3 9.4 23% 31 76.1 1007.1
05 17:53 SW 19 16.09 Fair CLR 34.4 9.4 36.7 32.8 21% 33 76.12 1007.1
05 16:53 S 7 16.09 Fair CLR 35 7.8 19% 33 76.1 1006.7
05 15:53 SE 17 16.09 Fair CLR 35.6 6.1 16% 33 76.12 1006.8
05 14:53 S 15 16.09 Fair CLR 35.6 6.1 16% 33 76.15 1007.3
05 11:53 W 19 16.09 Fair CLR 33.3 7.2 33.3 19.4 20% 31 76.3 1009.2
05 10:53 W 11 16.09 Fair CLR 30 8.9 27% 29 76.35 1010.1
05 09:53 S 9 16.09 Fair CLR 26.7 11.7 39% 27 76.38 1010.8
05 08:53 W 11 16.09 Fair CLR 23.9 12.2 48% 25 76.38 1011.2
05 07:53 Calm 16.09 Fair CLR 21.1 13.9 64% 76.38 1011.2
05 06:53 NW 6 16.09 Fair CLR 19.4 13.9 71% 76.35 1010.6
05 05:53 NW 11 16.09 Fair CLR 19.4 14.4 23.9 19.4 73% 76.3 1009.8
05 04:53 N 15 16.09 Fair CLR 20 13.9 68% 76.3 1009.6
05 03:53 N 15 16.09 Fair CLR 20.6 13.9 66% 76.3 1009.5
05 02:53 N 13 16.09 Fair CLR 20 13.3 65% 76.28 1009.1
05 01:53 NE 11 16.09 Fair CLR 21.1 12.2 57% 76.28 1009.0
05 00:53 E 15 16.09 Fair CLR 22.2 11.7 52% 76.25 1008.7
04 23:53 E 7 16.09 Fair CLR 23.9 11.1 33.9 23.3 45% 25 76.23 1008.2
04 22:53 E 15 16.09 A Few Clouds FEW100 25.6 11.1 40% 26 76.2 1008.0
04 21:53 E 11 16.09 Fair CLR 26.1 10.6 38% 26 76.23 1008.6
04 20:53 Calm 16.09 Fair CLR 27.2 10 34% 27 76.2 1008.7
04 19:53 SE 9 16.09 Fair CLR 30 9.4 28% 29 76.12 1008.0
04 18:53 SE 11 16.09 Fair CLR 32.2 8.3 23% 30 76.07 1007.6
04 17:53 SE 15 16.09 Fair CLR 33.3 8.3 35.6 32.2 21% 31 76.1 1007.7
04 16:53 S 26 G 33 16.09 A Few Clouds FEW120 35.6 7.8 18% 33 76.07 1007.1
04 15:53 S 11 16.09 Fair CLR 33.9 6.1 18% 32 76.1 1007.1
04 14:53 SE 15 16.09 Fair CLR 35 5.6 16% 33 76.12 1007.3
04 13:53 SE 9 16.09 Fair CLR 33.9 5.6 17% 32 76.17 1008.0
04 12:53 SE 11 16.09 Fair CLR 33.3 5 17% 31 76.23 1008.8
04 11:53 S 7 16.09 Fair CLR 32.2 6.1 32.2 13.3 19% 30 76.3 1009.3
04 09:53 W 7 16.09 Fair CLR 26.7 6.1 27% 26 76.33 1009.9
04 08:53 W 6 16.09 Fair CLR 22.8 8.3 40% 76.33 1010.1
04 07:53 SW 11 16.09 Fair CLR 17.8 9.4 58% 76.3 1010.6
04 06:53 W 6 16.09 Fair CLR 13.9 7.2 64% 76.23 1009.4
04 05:53 Calm 16.09 Fair CLR 13.9 7.2 23.3 13.3 64% 76.17 1008.7
04 04:53 SW 6 16.09 Fair CLR 14.4 7.2 62% 76.12 1007.9
04 03:53 W 15 16.09 Fair CLR 16.7 7.8 56% 76.1 1007.1
04 02:53 SW 7 16.09 Fair CLR 17.8 7.8 52% 76.07 1006.6
04 01:53 SW 6 16.09 Fair CLR 18.9 8.3 50% 76.07 1006.5
04 00:53 NW 9 16.09 Fair CLR 20 7.2 44% 76.05 1006.2
03 23:53 Calm 16.09 Fair CLR 22.8 7.8 35 22.8 38% 76.02 1006.0
03 22:53 E 11 16.09 Fair CLR 24.4 7.8 35% 25 76.05 1006.0
03 21:53 SE 11 16.09 Fair CLR 27.2 7.8 29% 27 76.07 1006.4
03 20:53 SE 17 16.09 Fair CLR 28.9 5.6 23% 27 76.02 1005.7
03 19:53 E 15 16.09 Fair CLR 28.9 6.7 25% 28 75.95 1005.6
03 18:53 E 7 16.09 Fair CLR 33.3 2.8 14% 31 75.92 1005.6
03 16:53 Calm 16.09 Fair CLR 35 3.3 14% 32 75.97 1005.2
03 15:53 SW 13 16.09 Fair CLR 35 3.9 14% 33 76 1006.2
03 14:53 S 13 16.09 Fair CLR 35 5 15% 33 76.07 1006.6
03 13:53 Vrbl 6 16.09 Fair CLR 33.9 4.4 16% 32 76.12 1007.2
03 12:53 Vrbl 7 16.09 Fair CLR 32.8 4.4 17% 31 76.2 1007.9
03 11:53 Calm 16.09 Fair CLR 30.6 5 31.1 12.2 20% 29 76.28 1009.6
03 10:53 SW 7 16.09 Fair CLR 29.4 6.1 23% 28 76.3 1010.3
03 09:53 S 7 16.09 Fair CLR 26.7 7.8 30% 26 76.3 1009.8
Date Time (mdt) Wind (kph) Vis. (km) Weather Sky Cond. Air Dwpt Max. Min. Relative Humidity Wind Chill (°C) Heat Index (°C) altimeter (cm) sea level (mb) 1 hr 3 hr 6 hr
6 hour
Temperature (ºC) Pressure Precipitation (cm)